Time,TemperatureF,DewpointF,PressureIn,WindDirection,WindDirectionDegrees,WindSpeedMPH,WindSpeedGustMPH,Humidity,HourlyPrecipIn,Conditions,Clouds,dailyrainin,SoftwareType,DateUTC
2013-04-14 00:00:00,41.5,41.5,29.99,SW,225,1.5,3.0,100,0.03,,,0.00,NetBSD+Arduino,2013-04-14 07:00:00,
2013-04-14 00:05:00,41.3,41.3,29.99,SW,225,0.0,1.5,100,0.03,,,0.00,NetBSD+Arduino,2013-04-14 07:05:00,
2013-04-14 00:11:00,41.2,41.2,29.99,SW,225,0.0,0.0,100,0.02,,,0.00,NetBSD+Arduino,2013-04-14 07:11:00,
2013-04-14 00:16:00,41.0,41.0,29.99,West,270,0.0,0.0,100,0.02,,,0.00,NetBSD+Arduino,2013-04-14 07:16:00,
2013-04-14 00:21:00,41.0,41.0,29.99,West,270,0.0,0.0,100,0.02,,,0.00,NetBSD+Arduino,2013-04-14 07:21:00,
2013-04-14 00:26:00,41.0,41.0,29.99,West,270,0.0,0.0,100,0.02,,,0.00,NetBSD+Arduino,2013-04-14 07:26:00,
2013-04-14 00:31:00,41.0,41.0,29.99,SE,135,0.0,1.5,100,0.02,,,0.00,NetBSD+Arduino,2013-04-14 07:31:00,
2013-04-14 00:36:00,40.9,40.9,29.99,NW,315,0.0,0.0,100,0.02,,,0.00,NetBSD+Arduino,2013-04-14 07:36:00,
2013-04-14 00:41:00,41.0,41.0,29.99,South,180,1.5,3.0,100,0.02,,,0.00,NetBSD+Arduino,2013-04-14 07:41:00,
2013-04-14 00:46:00,40.9,40.9,30.00,South,180,1.5,1.5,99,0.00,,,0.00,NetBSD+Arduino,2013-04-14 07:46:00,
2013-04-14 00:51:00,40.9,40.9,29.99,SW,225,0.0,3.0,100,0.00,,,0.00,NetBSD+Arduino,2013-04-14 07:51:00,
2013-04-14 00:56:00,40.8,40.8,30.00,SW,225,1.5,3.0,100,0.00,,,0.00,NetBSD+Arduino,2013-04-14 07:56:00,
2013-04-14 01:01:00,40.8,40.8,29.99,SW,225,1.5,3.0,100,0.00,,,0.00,NetBSD+Arduino,2013-04-14 08:01:00,
2013-04-14 01:06:00,40.8,40.8,29.99,West,270,1.5,3.0,100,0.00,,,0.00,NetBSD+Arduino,2013-04-14 08:06:00,
2013-04-14 01:11:00,40.6,40.6,29.99,NW,315,1.5,3.0,100,0.00,,,0.00,NetBSD+Arduino,2013-04-14 08:11:00,
2013-04-14 01:16:00,40.7,40.7,29.99,West,270,0.0,3.0,100,0.00,,,0.00,NetBSD+Arduino,2013-04-14 08:16:00,
2013-04-14 01:21:00,40.5,40.5,29.99,SW,225,0.0,1.5,100,0.00,,,0.00,NetBSD+Arduino,2013-04-14 08:21:00,
2013-04-14 01:26:00,40.6,40.6,29.99,SE,135,1.5,3.0,100,0.02,,,0.02,NetBSD+Arduino,2013-04-14 08:26:00,
2013-04-14 01:31:00,40.7,40.7,29.99,South,180,0.0,3.0,100,0.02,,,0.02,NetBSD+Arduino,2013-04-14 08:31:00,
2013-04-14 01:36:00,40.5,40.5,29.99,SE,135,1.5,4.5,100,0.02,,,0.02,NetBSD+Arduino,2013-04-14 08:36:00,
2013-04-14 01:41:00,40.4,40.4,29.98,SE,135,1.5,6.0,100,0.02,,,0.02,NetBSD+Arduino,2013-04-14 08:41:00,
2013-04-14 01:46:00,40.3,40.3,29.98,South,180,1.5,4.5,100,0.02,,,0.02,NetBSD+Arduino,2013-04-14 08:46:00,
2013-04-14 01:51:00,40.3,40.3,29.99,South,180,0.0,6.0,100,0.02,,,0.02,NetBSD+Arduino,2013-04-14 08:51:00,
2013-04-14 01:56:00,40.3,40.3,29.99,South,180,3.0,4.5,100,0.02,,,0.02,NetBSD+Arduino,2013-04-14 08:56:00,
2013-04-14 02:02:00,40.2,40.2,29.99,SE,135,4.5,7.5,100,0.02,,,0.02,NetBSD+Arduino,2013-04-14 09:02:00,
2013-04-14 02:07:00,40.2,40.2,29.99,South,180,4.5,7.5,100,0.02,,,0.02,NetBSD+Arduino,2013-04-14 09:07:00,
2013-04-14 02:13:00,40.1,40.1,29.99,SE,135,3.0,6.0,100,0.02,,,0.02,NetBSD+Arduino,2013-04-14 09:13:00,
2013-04-14 02:18:00,40.0,40.0,29.99,South,180,3.0,7.5,100,0.02,,,0.02,NetBSD+Arduino,2013-04-14 09:18:00,
2013-04-14 02:23:00,39.9,39.9,29.99,SE,135,0.0,6.0,100,0.00,,,0.02,NetBSD+Arduino,2013-04-14 09:23:00,
2013-04-14 02:28:00,39.8,39.8,29.99,South,180,1.5,4.5,100,0.00,,,0.02,NetBSD+Arduino,2013-04-14 09:28:00,
2013-04-14 02:33:00,39.6,39.6,29.99,SE,135,4.5,6.0,100,0.00,,,0.02,NetBSD+Arduino,2013-04-14 09:33:00,
2013-04-14 02:38:00,39.5,39.5,29.99,South,180,0.0,6.0,100,0.00,,,0.02,NetBSD+Arduino,2013-04-14 09:38:00,
2013-04-14 02:43:00,39.5,39.5,29.99,South,180,3.0,4.5,100,0.00,,,0.02,NetBSD+Arduino,2013-04-14 09:43:00,
2013-04-14 02:48:00,39.4,39.4,29.99,SW,225,0.0,4.5,100,0.00,,,0.02,NetBSD+Arduino,2013-04-14 09:48:00,
2013-04-14 02:53:00,39.3,39.3,29.99,South,180,3.0,6.0,100,0.00,,,0.02,NetBSD+Arduino,2013-04-14 09:53:00,
2013-04-14 02:58:00,39.4,39.4,29.99,South,180,1.5,4.5,100,0.00,,,0.02,NetBSD+Arduino,2013-04-14 09:58:00,
2013-04-14 03:03:00,39.2,39.2,29.99,South,180,0.0,3.0,100,0.00,,,0.02,NetBSD+Arduino,2013-04-14 10:03:00,
2013-04-14 03:08:00,39.2,39.2,29.99,South,180,1.5,3.0,100,0.00,,,0.02,NetBSD+Arduino,2013-04-14 10:08:00,
2013-04-14 03:13:00,39.2,39.2,29.99,South,180,0.0,3.0,100,0.00,,,0.02,NetBSD+Arduino,2013-04-14 10:13:00,
2013-04-14 03:18:00,39.3,39.3,29.99,South,180,3.0,4.5,100,0.00,,,0.02,NetBSD+Arduino,2013-04-14 10:18:00,
2013-04-14 03:24:00,39.5,39.5,29.99,South,180,0.0,3.0,100,0.00,,,0.02,NetBSD+Arduino,2013-04-14 10:24:00,
2013-04-14 03:29:00,39.5,39.5,29.99,South,180,0.0,3.0,100,0.00,,,0.02,NetBSD+Arduino,2013-04-14 10:29:00,
2013-04-14 03:34:00,39.5,39.5,29.99,SE,135,1.5,6.0,100,0.00,,,0.02,NetBSD+Arduino,2013-04-14 10:34:00,
2013-04-14 03:39:00,39.5,39.5,29.99,South,180,1.5,6.0,100,0.00,,,0.02,NetBSD+Arduino,2013-04-14 10:39:00,
2013-04-14 03:44:00,39.4,39.4,29.99,South,180,4.5,6.0,100,0.00,,,0.02,NetBSD+Arduino,2013-04-14 10:44:00,
2013-04-14 03:49:00,39.3,39.3,29.99,South,180,1.5,6.0,100,0.00,,,0.02,NetBSD+Arduino,2013-04-14 10:49:00,
2013-04-14 03:54:00,39.2,39.2,29.99,SE,135,4.5,7.5,100,0.00,,,0.02,NetBSD+Arduino,2013-04-14 10:54:00,
2013-04-14 03:59:00,39.1,39.1,29.99,South,180,3.0,6.0,100,0.00,,,0.02,NetBSD+Arduino,2013-04-14 10:59:00,
2013-04-14 04:04:00,39.0,39.0,29.99,South,180,3.0,6.0,100,0.00,,,0.02,NetBSD+Arduino,2013-04-14 11:04:00,
2013-04-14 04:09:00,38.9,38.9,29.99,NE,45,0.0,6.0,100,0.00,,,0.02,NetBSD+Arduino,2013-04-14 11:09:00,
2013-04-14 04:15:00,38.9,38.9,29.99,SW,225,1.5,7.5,100,0.00,,,0.02,NetBSD+Arduino,2013-04-14 11:15:00,
2013-04-14 04:21:00,38.9,38.9,29.99,SE,135,1.5,4.5,100,0.00,,,0.02,NetBSD+Arduino,2013-04-14 11:21:00,
2013-04-14 04:26:00,39.0,39.0,29.99,South,180,4.5,6.0,100,0.00,,,0.02,NetBSD+Arduino,2013-04-14 11:26:00,
2013-04-14 04:31:00,39.0,39.0,29.99,East,90,1.5,6.0,100,0.00,,,0.02,NetBSD+Arduino,2013-04-14 11:31:00,
2013-04-14 04:36:00,38.9,38.9,29.99,SE,135,1.5,4.5,100,0.00,,,0.02,NetBSD+Arduino,2013-04-14 11:36:00,
2013-04-14 04:41:00,38.9,38.9,29.99,South,180,1.5,4.5,100,0.00,,,0.02,NetBSD+Arduino,2013-04-14 11:41:00,
2013-04-14 04:46:00,39.0,39.0,29.99,South,180,1.5,4.5,100,0.00,,,0.02,NetBSD+Arduino,2013-04-14 11:46:00,
2013-04-14 04:51:00,39.2,39.2,29.99,South,180,4.5,4.5,100,0.00,,,0.02,NetBSD+Arduino,2013-04-14 11:51:00,
2013-04-14 04:56:00,39.4,39.4,29.99,South,180,0.0,6.0,100,0.00,,,0.02,NetBSD+Arduino,2013-04-14 11:56:00,
2013-04-14 05:01:00,39.5,39.5,29.99,SE,135,1.5,6.0,100,0.00,,,0.02,NetBSD+Arduino,2013-04-14 12:01:00,
2013-04-14 05:06:00,39.5,39.5,29.99,South,180,1.5,6.0,100,0.00,,,0.02,NetBSD+Arduino,2013-04-14 12:06:00,
2013-04-14 05:11:00,39.6,39.6,29.99,SE,135,3.0,3.0,100,0.00,,,0.02,NetBSD+Arduino,2013-04-14 12:11:00,
2013-04-14 05:16:00,39.5,39.5,29.99,SE,135,1.5,4.5,100,0.00,,,0.02,NetBSD+Arduino,2013-04-14 12:16:00,
2013-04-14 05:21:00,39.6,39.6,29.99,SE,135,3.0,4.5,100,0.00,,,0.02,NetBSD+Arduino,2013-04-14 12:21:00,
2013-04-14 05:26:00,39.7,39.7,29.99,South,180,0.0,4.5,100,0.00,,,0.02,NetBSD+Arduino,2013-04-14 12:26:00,
2013-04-14 05:31:00,39.7,39.7,29.99,SE,135,1.5,3.0,100,0.00,,,0.02,NetBSD+Arduino,2013-04-14 12:31:00,
2013-04-14 05:36:00,39.7,39.7,29.99,SE,135,1.5,4.5,100,0.00,,,0.02,NetBSD+Arduino,2013-04-14 12:36:00,
2013-04-14 05:41:00,39.7,39.7,29.99,South,180,1.5,4.5,100,0.00,,,0.02,NetBSD+Arduino,2013-04-14 12:41:00,
2013-04-14 05:46:00,39.6,39.6,29.99,SE,135,0.0,4.5,100,0.00,,,0.02,NetBSD+Arduino,2013-04-14 12:46:00,
2013-04-14 05:51:00,39.5,39.5,29.99,South,180,1.5,4.5,100,0.00,,,0.02,NetBSD+Arduino,2013-04-14 12:51:00,
2013-04-14 05:56:00,39.6,39.6,29.99,South,180,0.0,4.5,100,0.00,,,0.02,NetBSD+Arduino,2013-04-14 12:56:00,
2013-04-14 06:01:00,39.6,39.6,29.99,East,90,0.0,3.0,100,0.00,,,0.02,NetBSD+Arduino,2013-04-14 13:01:00,
2013-04-14 06:06:00,39.7,39.7,29.99,South,180,0.0,3.0,100,0.00,,,0.02,NetBSD+Arduino,2013-04-14 13:06:00,
2013-04-14 06:11:00,39.7,39.7,29.99,East,90,0.0,3.0,100,0.00,,,0.02,NetBSD+Arduino,2013-04-14 13:11:00,
2013-04-14 06:16:00,39.7,39.7,29.99,South,180,0.0,1.5,100,0.00,,,0.02,NetBSD+Arduino,2013-04-14 13:16:00,
2013-04-14 06:21:00,39.7,39.7,29.99,East,90,0.0,3.0,100,0.00,,,0.02,NetBSD+Arduino,2013-04-14 13:21:00,
2013-04-14 06:26:00,39.8,39.8,29.99,East,90,0.0,1.5,100,0.00,,,0.02,NetBSD+Arduino,2013-04-14 13:26:00,
2013-04-14 06:32:00,39.9,39.9,29.99,East,90,0.0,1.5,100,0.00,,,0.02,NetBSD+Arduino,2013-04-14 13:32:00,
2013-04-14 06:37:00,40.0,40.0,29.99,South,180,0.0,0.0,100,0.00,,,0.02,NetBSD+Arduino,2013-04-14 13:37:00,
2013-04-14 06:42:00,40.1,40.1,29.99,South,180,0.0,1.5,100,0.00,,,0.02,NetBSD+Arduino,2013-04-14 13:42:00,
2013-04-14 06:48:00,40.2,40.2,29.99,South,180,3.0,3.0,100,0.00,,,0.02,NetBSD+Arduino,2013-04-14 13:48:00,
2013-04-14 06:53:00,40.2,40.2,29.99,South,180,1.5,3.0,100,0.00,,,0.02,NetBSD+Arduino,2013-04-14 13:53:00,
2013-04-14 06:58:00,40.3,40.3,29.99,East,90,0.0,3.0,100,0.00,,,0.02,NetBSD+Arduino,2013-04-14 13:58:00,
2013-04-14 07:04:00,40.5,40.5,29.99,South,180,3.0,3.0,100,0.00,,,0.02,NetBSD+Arduino,2013-04-14 14:04:00,
2013-04-14 07:09:00,40.5,40.5,29.99,SE,135,3.0,6.0,100,0.00,,,0.02,NetBSD+Arduino,2013-04-14 14:09:00,
2013-04-14 07:14:00,40.8,40.8,29.99,SE,135,1.5,4.5,100,0.00,,,0.02,NetBSD+Arduino,2013-04-14 14:14:00,
2013-04-14 07:19:00,40.6,40.6,29.99,SE,135,3.0,3.0,100,0.00,,,0.02,NetBSD+Arduino,2013-04-14 14:19:00,
2013-04-14 07:24:00,40.8,40.8,29.99,SE,135,4.5,4.5,100,0.00,,,0.02,NetBSD+Arduino,2013-04-14 14:24:00,
2013-04-14 07:29:00,41.0,41.0,29.99,South,180,0.0,6.0,100,0.00,,,0.02,NetBSD+Arduino,2013-04-14 14:29:00,
2013-04-14 07:35:00,41.0,41.0,29.99,South,180,1.5,4.5,100,0.00,,,0.02,NetBSD+Arduino,2013-04-14 14:35:00,
2013-04-14 07:40:00,41.2,41.1,29.99,SE,135,1.5,3.0,99,0.00,,,0.02,NetBSD+Arduino,2013-04-14 14:40:00,
2013-04-14 07:45:00,41.4,41.3,29.99,SE,135,1.5,3.0,99,0.00,,,0.02,NetBSD+Arduino,2013-04-14 14:45:00,
2013-04-14 07:50:00,41.6,41.6,29.99,East,90,1.5,3.0,100,0.00,,,0.02,NetBSD+Arduino,2013-04-14 14:50:00,
2013-04-14 07:55:00,41.9,41.9,29.99,South,180,0.0,6.0,100,0.00,,,0.02,NetBSD+Arduino,2013-04-14 14:55:00,
2013-04-14 08:00:00,42.3,42.3,29.98,South,180,1.5,6.0,99,0.00,,,0.02,NetBSD+Arduino,2013-04-14 15:00:00,
2013-04-14 08:05:00,42.9,42.8,29.98,South,180,1.5,3.0,99,0.00,,,0.02,NetBSD+Arduino,2013-04-14 15:05:00,
2013-04-14 08:10:00,42.8,42.4,29.99,SE,135,1.5,6.0,98,0.00,,,0.02,NetBSD+Arduino,2013-04-14 15:10:00,
2013-04-14 08:15:00,42.9,42.5,29.98,SE,135,1.5,6.0,98,0.00,,,0.02,NetBSD+Arduino,2013-04-14 15:15:00,
2013-04-14 08:20:00,42.8,42.1,29.99,South,180,4.5,6.0,97,0.00,,,0.02,NetBSD+Arduino,2013-04-14 15:20:00,
2013-04-14 08:25:00,42.6,41.8,29.98,South,180,1.5,4.5,96,0.00,,,0.02,NetBSD+Arduino,2013-04-14 15:25:00,
2013-04-14 08:30:00,42.7,42.0,29.97,SE,135,3.0,6.0,97,0.00,,,0.02,NetBSD+Arduino,2013-04-14 15:30:00,
2013-04-14 08:35:00,44.3,42.9,29.98,South,180,3.0,7.5,94,0.00,,,0.02,NetBSD+Arduino,2013-04-14 15:35:00,
2013-04-14 08:40:00,44.6,42.1,29.97,South,180,1.5,7.5,90,0.00,,,0.02,NetBSD+Arduino,2013-04-14 15:40:00,
2013-04-14 08:45:00,44.2,41.4,29.97,SW,225,1.5,4.5,89,0.00,,,0.02,NetBSD+Arduino,2013-04-14 15:45:00,
2013-04-14 08:50:00,44.3,43.1,29.97,SE,135,0.0,4.5,95,0.00,,,0.02,NetBSD+Arduino,2013-04-14 15:50:00,
2013-04-14 08:55:00,45.1,42.5,29.98,South,180,0.0,4.5,90,0.00,,,0.02,NetBSD+Arduino,2013-04-14 15:55:00,
2013-04-14 09:00:00,45.7,42.6,29.98,SE,135,1.5,6.0,88,0.00,,,0.02,NetBSD+Arduino,2013-04-14 16:00:00,
2013-04-14 09:05:00,44.6,42.1,29.98,South,180,3.0,6.0,90,0.00,,,0.02,NetBSD+Arduino,2013-04-14 16:05:00,
2013-04-14 09:10:00,44.2,42.1,29.98,SW,225,4.5,6.0,92,0.00,,,0.02,NetBSD+Arduino,2013-04-14 16:10:00,
2013-04-14 09:15:00,43.8,41.3,29.98,South,180,3.0,6.0,90,0.00,,,0.02,NetBSD+Arduino,2013-04-14 16:15:00,
2013-04-14 09:20:00,43.9,42.0,29.98,SW,225,0.0,6.0,92,0.00,,,0.02,NetBSD+Arduino,2013-04-14 16:20:00,
2013-04-14 09:25:00,44.1,42.5,29.98,SW,225,0.0,3.0,93,0.00,,,0.02,NetBSD+Arduino,2013-04-14 16:25:00,
2013-04-14 09:30:00,43.8,41.9,29.98,SE,135,4.5,7.5,92,0.00,,,0.02,NetBSD+Arduino,2013-04-14 16:30:00,
2013-04-14 09:35:00,43.9,42.2,29.98,SW,225,1.5,6.0,93,0.00,,,0.02,NetBSD+Arduino,2013-04-14 16:35:00,
2013-04-14 09:40:00,44.2,41.8,29.98,SW,225,1.5,3.0,91,0.00,,,0.02,NetBSD+Arduino,2013-04-14 16:40:00,
2013-04-14 09:45:00,44.6,42.5,29.98,SW,225,0.0,3.0,92,0.00,,,0.02,NetBSD+Arduino,2013-04-14 16:45:00,
2013-04-14 09:50:00,45.6,42.8,29.98,SW,225,3.0,6.0,89,0.00,,,0.02,NetBSD+Arduino,2013-04-14 16:50:00,
2013-04-14 09:55:00,46.2,42.2,29.98,South,180,3.0,7.5,85,0.00,,,0.02,NetBSD+Arduino,2013-04-14 16:55:00,
2013-04-14 10:00:00,46.1,42.7,29.97,SW,225,1.5,6.0,87,0.00,,,0.02,NetBSD+Arduino,2013-04-14 17:00:00,
2013-04-14 10:05:00,45.1,41.5,29.97,SW,225,6.0,7.5,87,0.00,,,0.02,NetBSD+Arduino,2013-04-14 17:05:00,
2013-04-14 10:11:00,44.6,41.8,29.97,SW,225,0.0,3.0,89,0.00,,,0.02,NetBSD+Arduino,2013-04-14 17:11:00,
2013-04-14 10:16:00,44.6,42.4,29.98,SW,225,0.0,4.5,91,0.00,,,0.02,NetBSD+Arduino,2013-04-14 17:16:00,
2013-04-14 10:21:00,44.6,41.8,29.98,SW,225,1.5,4.5,89,0.00,,,0.02,NetBSD+Arduino,2013-04-14 17:21:00,
2013-04-14 10:26:00,45.1,42.8,29.98,South,180,3.0,6.0,91,0.00,,,0.02,NetBSD+Arduino,2013-04-14 17:26:00,
2013-04-14 10:31:00,44.9,42.1,29.98,SE,135,0.0,3.0,89,0.00,,,0.02,NetBSD+Arduino,2013-04-14 17:31:00,
2013-04-14 10:36:00,44.6,41.8,29.98,West,270,1.5,4.5,89,0.00,,,0.02,NetBSD+Arduino,2013-04-14 17:36:00,
2013-04-14 10:41:00,44.3,41.5,29.98,SE,135,4.5,6.0,89,0.00,,,0.02,NetBSD+Arduino,2013-04-14 17:41:00,
2013-04-14 10:46:00,44.1,40.8,29.98,SE,135,1.5,6.0,88,0.00,,,0.02,NetBSD+Arduino,2013-04-14 17:46:00,
2013-04-14 10:51:00,45.4,41.7,29.98,South,180,1.5,4.5,86,0.00,,,0.02,NetBSD+Arduino,2013-04-14 17:51:00,
2013-04-14 10:56:00,45.8,41.7,29.98,SW,225,1.5,4.5,85,0.00,,,0.02,NetBSD+Arduino,2013-04-14 17:56:00,
2013-04-14 11:01:00,48.1,43.6,29.97,West,270,0.0,3.0,84,0.00,,,0.02,NetBSD+Arduino,2013-04-14 18:01:00,
2013-04-14 11:06:00,48.0,41.0,29.97,North,0,3.0,6.0,76,0.00,,,0.02,NetBSD+Arduino,2013-04-14 18:06:00,
2013-04-14 11:11:00,50.4,43.1,29.97,South,180,0.0,4.5,76,0.00,,,0.02,NetBSD+Arduino,2013-04-14 18:11:00,
2013-04-14 11:16:00,51.3,41.8,29.97,South,180,4.5,6.0,69,0.00,,,0.02,NetBSD+Arduino,2013-04-14 18:16:00,
2013-04-14 11:21:00,52.3,43.4,29.97,SW,225,1.5,4.5,71,0.00,,,0.02,NetBSD+Arduino,2013-04-14 18:21:00,
2013-04-14 11:26:00,52.7,42.2,29.97,South,180,3.0,6.0,67,0.00,,,0.02,NetBSD+Arduino,2013-04-14 18:26:00,
2013-04-14 11:31:00,49.2,41.0,29.97,SW,225,1.5,6.0,73,0.00,,,0.02,NetBSD+Arduino,2013-04-14 18:31:00,
2013-04-14 11:36:00,49.7,41.8,29.97,South,180,0.0,3.0,74,0.00,,,0.02,NetBSD+Arduino,2013-04-14 18:36:00,
2013-04-14 11:41:00,51.5,42.1,29.97,SW,225,3.0,4.5,69,0.00,,,0.02,NetBSD+Arduino,2013-04-14 18:41:00,
2013-04-14 11:47:00,49.7,40.7,29.97,SE,135,3.0,7.5,71,0.00,,,0.02,NetBSD+Arduino,2013-04-14 18:47:00,
2013-04-14 11:53:00,50.5,41.9,29.96,SW,225,1.5,3.0,72,0.00,,,0.02,NetBSD+Arduino,2013-04-14 18:53:00,
2013-04-14 11:58:00,53.3,40.7,29.97,East,90,0.0,4.5,62,0.00,,,0.02,NetBSD+Arduino,2013-04-14 18:58:00,
2013-04-14 12:03:00,54.6,41.8,29.96,NW,315,0.0,6.0,61,0.00,,,0.02,NetBSD+Arduino,2013-04-14 19:03:00,
2013-04-14 12:09:00,56.4,42.9,29.96,West,270,1.5,9.0,60,0.00,,,0.02,NetBSD+Arduino,2013-04-14 19:09:00,
2013-04-14 12:14:00,55.6,40.9,29.96,SW,225,1.5,6.0,57,0.00,,,0.02,NetBSD+Arduino,2013-04-14 19:14:00,
2013-04-14 12:20:00,53.4,40.4,29.96,SW,225,3.0,7.5,61,0.00,,,0.02,NetBSD+Arduino,2013-04-14 19:20:00,
2013-04-14 12:25:00,51.8,39.2,29.96,SW,225,4.5,9.0,62,0.00,,,0.02,NetBSD+Arduino,2013-04-14 19:25:00,
2013-04-14 12:30:00,54.1,40.5,29.96,NW,315,1.5,4.5,59,0.00,,,0.02,NetBSD+Arduino,2013-04-14 19:30:00,
2013-04-14 12:35:00,53.8,43.0,29.96,West,270,1.5,4.5,66,0.00,,,0.02,NetBSD+Arduino,2013-04-14 19:35:00,
2013-04-14 12:40:00,51.0,39.8,29.96,West,270,3.0,4.5,65,0.00,,,0.02,NetBSD+Arduino,2013-04-14 19:40:00,
2013-04-14 12:45:00,49.8,39.3,29.95,West,270,1.5,3.0,67,0.00,,,0.02,NetBSD+Arduino,2013-04-14 19:45:00,
2013-04-14 12:50:00,49.5,38.0,29.95,West,270,0.0,1.5,64,0.00,,,0.02,NetBSD+Arduino,2013-04-14 19:50:00,
2013-04-14 12:55:00,50.0,39.1,29.95,NE,45,1.5,1.5,66,0.00,,,0.02,NetBSD+Arduino,2013-04-14 19:55:00,
2013-04-14 13:00:00,50.5,40.3,29.95,NE,45,1.5,4.5,68,0.00,,,0.02,NetBSD+Arduino,2013-04-14 20:00:00,
2013-04-14 13:05:00,50.3,40.0,29.95,NE,45,3.0,4.5,67,0.00,,,0.02,NetBSD+Arduino,2013-04-14 20:05:00,
2013-04-14 13:10:00,49.8,40.0,29.95,NW,315,3.0,6.0,68,0.02,,,0.03,NetBSD+Arduino,2013-04-14 20:10:00,
2013-04-14 13:15:00,49.5,39.0,29.95,North,0,1.5,6.0,66,0.02,,,0.03,NetBSD+Arduino,2013-04-14 20:15:00,
2013-04-14 13:20:00,49.1,39.9,29.95,NW,315,0.0,3.0,70,0.02,,,0.03,NetBSD+Arduino,2013-04-14 20:20:00,
2013-04-14 13:25:00,49.0,40.6,29.95,NW,315,1.5,1.5,72,0.02,,,0.03,NetBSD+Arduino,2013-04-14 20:25:00,
2013-04-14 13:30:00,48.7,38.4,29.95,NW,315,0.0,3.0,67,0.02,,,0.03,NetBSD+Arduino,2013-04-14 20:30:00,
2013-04-14 13:35:00,50.1,42.1,29.95,West,270,1.5,1.5,73,0.02,,,0.03,NetBSD+Arduino,2013-04-14 20:35:00,
2013-04-14 13:40:00,53.7,41.9,29.95,West,270,1.5,4.5,64,0.02,,,0.03,NetBSD+Arduino,2013-04-14 20:40:00,
2013-04-14 13:45:00,55.2,40.5,29.94,NE,45,3.0,4.5,57,0.02,,,0.03,NetBSD+Arduino,2013-04-14 20:45:00,
2013-04-14 13:51:00,56.8,43.0,29.94,West,270,0.0,6.0,59,0.02,,,0.03,NetBSD+Arduino,2013-04-14 20:51:00,
2013-04-14 13:56:00,58.8,44.9,29.94,South,180,1.5,4.5,59,0.02,,,0.03,NetBSD+Arduino,2013-04-14 20:56:00,
2013-04-14 14:01:00,59.5,43.1,29.94,NW,315,0.0,9.0,54,0.02,,,0.03,NetBSD+Arduino,2013-04-14 21:01:00,
2013-04-14 14:06:00,60.0,42.5,29.94,North,0,1.5,7.5,52,0.02,,,0.03,NetBSD+Arduino,2013-04-14 21:06:00,
2013-04-14 14:11:00,56.2,40.6,29.94,NE,45,6.0,13.4,55,0.00,,,0.03,NetBSD+Arduino,2013-04-14 21:11:00,
2013-04-14 14:16:00,52.6,40.8,29.94,East,90,9.0,10.4,64,0.00,,,0.03,NetBSD+Arduino,2013-04-14 21:16:00,
2013-04-14 14:21:00,50.7,40.9,29.94,East,90,3.0,10.4,68,0.00,,,0.03,NetBSD+Arduino,2013-04-14 21:21:00,
2013-04-14 14:27:00,49.2,42.7,29.94,NE,45,4.5,7.5,78,0.00,,,0.03,NetBSD+Arduino,2013-04-14 21:27:00,
2013-04-14 14:33:00,49.2,42.9,29.94,NE,45,6.0,9.0,78,0.00,,,0.03,NetBSD+Arduino,2013-04-14 21:33:00,
2013-04-14 14:38:00,49.0,41.4,29.94,NW,315,1.5,7.5,75,0.00,,,0.03,NetBSD+Arduino,2013-04-14 21:38:00,
2013-04-14 14:43:00,49.8,42.2,29.94,NW,315,1.5,6.0,75,0.00,,,0.03,NetBSD+Arduino,2013-04-14 21:43:00,
2013-04-14 14:48:00,51.7,40.8,29.93,NE,45,3.0,4.5,66,0.00,,,0.03,NetBSD+Arduino,2013-04-14 21:48:00,
2013-04-14 14:53:00,54.1,42.1,29.93,South,180,0.0,10.4,63,0.00,,,0.03,NetBSD+Arduino,2013-04-14 21:53:00,
2013-04-14 14:58:00,55.4,41.8,29.93,West,270,1.5,4.5,60,0.00,,,0.03,NetBSD+Arduino,2013-04-14 21:58:00,
2013-04-14 15:04:00,55.0,39.0,29.93,NW,315,1.5,9.0,54,0.00,,,0.03,NetBSD+Arduino,2013-04-14 22:04:00,
2013-04-14 15:09:00,54.8,38.4,29.93,NE,45,3.0,9.0,53,0.00,,,0.03,NetBSD+Arduino,2013-04-14 22:09:00,
2013-04-14 15:14:00,54.9,37.8,29.92,West,270,0.0,6.0,52,0.00,,,0.03,NetBSD+Arduino,2013-04-14 22:14:00,
2013-04-14 15:19:00,55.4,38.8,29.92,NW,315,1.5,4.5,53,0.00,,,0.03,NetBSD+Arduino,2013-04-14 22:19:00,
2013-04-14 15:24:00,54.6,38.2,29.92,NW,315,3.0,7.5,53,0.00,,,0.03,NetBSD+Arduino,2013-04-14 22:24:00,
2013-04-14 15:30:00,54.9,36.3,29.92,NW,315,3.0,4.5,49,0.00,,,0.03,NetBSD+Arduino,2013-04-14 22:30:00,
2013-04-14 15:35:00,54.1,38.6,29.92,NE,45,4.5,7.5,55,0.00,,,0.03,NetBSD+Arduino,2013-04-14 22:35:00,
2013-04-14 15:40:00,53.6,38.3,29.92,West,270,4.5,4.5,56,0.00,,,0.03,NetBSD+Arduino,2013-04-14 22:40:00,
2013-04-14 15:45:00,53.3,41.3,29.91,North,0,4.5,7.5,63,0.00,,,0.03,NetBSD+Arduino,2013-04-14 22:45:00,
2013-04-14 15:50:00,53.1,40.0,29.91,North,0,1.5,9.0,60,0.00,,,0.03,NetBSD+Arduino,2013-04-14 22:50:00,
2013-04-14 15:55:00,53.2,39.8,29.91,SE,135,0.0,6.0,60,0.00,,,0.03,NetBSD+Arduino,2013-04-14 22:55:00,
2013-04-14 16:00:00,53.1,40.3,29.90,SW,225,1.5,6.0,61,0.00,,,0.03,NetBSD+Arduino,2013-04-14 23:00:00,
2013-04-14 16:05:00,52.6,39.4,29.91,South,180,0.0,4.5,60,0.00,,,0.03,NetBSD+Arduino,2013-04-14 23:05:00,
2013-04-14 16:10:00,52.7,38.3,29.90,NE,45,3.0,6.0,57,0.00,,,0.03,NetBSD+Arduino,2013-04-14 23:10:00,
2013-04-14 16:15:00,52.4,37.4,29.90,NE,45,6.0,7.5,56,0.00,,,0.03,NetBSD+Arduino,2013-04-14 23:15:00,
2013-04-14 16:20:00,52.4,38.4,29.90,North,0,3.0,7.5,58,0.00,,,0.03,NetBSD+Arduino,2013-04-14 23:20:00,
2013-04-14 16:25:00,52.6,37.1,29.90,NW,315,1.5,6.0,55,0.00,,,0.03,NetBSD+Arduino,2013-04-14 23:25:00,
2013-04-14 16:30:00,52.6,39.1,29.90,West,270,3.0,7.5,59,0.00,,,0.03,NetBSD+Arduino,2013-04-14 23:30:00,
2013-04-14 16:36:00,52.7,39.5,29.90,NW,315,4.5,7.5,60,0.00,,,0.03,NetBSD+Arduino,2013-04-14 23:36:00,
2013-04-14 16:41:00,52.7,38.1,29.90,NW,315,1.5,6.0,57,0.00,,,0.03,NetBSD+Arduino,2013-04-14 23:41:00,
2013-04-14 16:46:00,52.3,38.2,29.90,West,270,4.5,6.0,58,0.00,,,0.03,NetBSD+Arduino,2013-04-14 23:46:00,
2013-04-14 16:51:00,52.0,38.5,29.90,NW,315,1.5,7.5,59,0.00,,,0.03,NetBSD+Arduino,2013-04-14 23:51:00,
2013-04-14 16:56:00,51.6,36.8,29.90,NE,45,0.0,6.0,56,0.00,,,0.03,NetBSD+Arduino,2013-04-14 23:56:00,
2013-04-14 17:01:00,51.5,37.4,29.90,NW,315,3.0,7.5,58,0.00,,,0.03,NetBSD+Arduino,2013-04-15 00:01:00,
2013-04-14 17:07:00,51.3,36.0,29.90,NW,315,1.5,6.0,55,0.00,,,0.03,NetBSD+Arduino,2013-04-15 00:07:00,
2013-04-14 17:13:00,51.0,36.1,29.90,NW,315,1.5,4.5,56,0.00,,,0.03,NetBSD+Arduino,2013-04-15 00:13:00,
2013-04-14 17:19:00,50.8,36.0,29.90,NW,315,0.0,6.0,56,0.00,,,0.03,NetBSD+Arduino,2013-04-15 00:19:00,
2013-04-14 17:24:00,50.7,35.7,29.90,West,270,0.0,7.5,56,0.00,,,0.03,NetBSD+Arduino,2013-04-15 00:24:00,
2013-04-14 17:29:00,50.6,35.0,29.90,West,270,3.0,6.0,54,0.00,,,0.03,NetBSD+Arduino,2013-04-15 00:29:00,
2013-04-14 17:34:00,50.8,34.5,29.90,West,270,4.5,6.0,53,0.00,,,0.03,NetBSD+Arduino,2013-04-15 00:34:00,
2013-04-14 17:40:00,50.4,33.9,29.90,West,270,1.5,4.5,52,0.00,,,0.03,NetBSD+Arduino,2013-04-15 00:40:00,
2013-04-14 17:46:00,50.5,34.9,29.90,West,270,1.5,3.0,54,0.00,,,0.03,NetBSD+Arduino,2013-04-15 00:46:00,
2013-04-14 17:51:00,50.1,34.9,29.90,NW,315,3.0,4.5,55,0.00,,,0.03,NetBSD+Arduino,2013-04-15 00:51:00,
2013-04-14 17:56:00,50.1,35.4,29.90,West,270,3.0,4.5,56,0.00,,,0.03,NetBSD+Arduino,2013-04-15 00:56:00,
2013-04-14 18:02:00,49.8,35.7,29.90,NW,315,1.5,6.0,58,0.00,,,0.03,NetBSD+Arduino,2013-04-15 01:02:00,
2013-04-14 18:07:00,49.9,35.6,29.90,West,270,0.0,6.0,57,0.00,,,0.03,NetBSD+Arduino,2013-04-15 01:07:00,
2013-04-14 18:12:00,49.7,36.6,29.90,North,0,0.0,3.0,60,0.00,,,0.03,NetBSD+Arduino,2013-04-15 01:12:00,
2013-04-14 18:17:00,49.7,35.3,29.90,South,180,0.0,4.5,57,0.00,,,0.03,NetBSD+Arduino,2013-04-15 01:17:00,
2013-04-14 18:22:00,49.7,36.4,29.90,West,270,0.0,3.0,60,0.00,,,0.03,NetBSD+Arduino,2013-04-15 01:22:00,
2013-04-14 18:28:00,49.5,36.2,29.90,NE,45,1.5,3.0,60,0.00,,,0.03,NetBSD+Arduino,2013-04-15 01:28:00,
2013-04-14 18:33:00,49.4,35.1,29.90,South,180,0.0,4.5,57,0.00,,,0.03,NetBSD+Arduino,2013-04-15 01:33:00,
2013-04-14 18:39:00,48.9,35.2,29.90,SW,225,0.0,4.5,59,0.00,,,0.03,NetBSD+Arduino,2013-04-15 01:39:00,
2013-04-14 18:44:00,48.9,35.0,29.90,West,270,1.5,4.5,58,0.00,,,0.03,NetBSD+Arduino,2013-04-15 01:44:00,
2013-04-14 18:50:00,48.7,35.4,29.90,NW,315,1.5,3.0,59,0.00,,,0.03,NetBSD+Arduino,2013-04-15 01:50:00,
2013-04-14 18:55:00,48.6,35.3,29.90,NW,315,1.5,4.5,59,0.00,,,0.03,NetBSD+Arduino,2013-04-15 01:55:00,
2013-04-14 19:01:00,48.6,35.3,29.90,West,270,1.5,6.0,59,0.00,,,0.03,NetBSD+Arduino,2013-04-15 02:01:00,
2013-04-14 19:06:00,48.5,35.4,29.90,NW,315,0.0,4.5,60,0.00,,,0.03,NetBSD+Arduino,2013-04-15 02:06:00,
2013-04-14 19:11:00,48.2,35.2,29.90,West,270,0.0,3.0,60,0.00,,,0.03,NetBSD+Arduino,2013-04-15 02:11:00,
2013-04-14 19:17:00,48.0,34.5,29.90,NW,315,0.0,3.0,59,0.00,,,0.03,NetBSD+Arduino,2013-04-15 02:17:00,
2013-04-14 19:22:00,48.0,34.3,29.90,North,0,1.5,3.0,58,0.00,,,0.03,NetBSD+Arduino,2013-04-15 02:22:00,
2013-04-14 19:28:00,47.8,34.1,29.90,NE,45,1.5,4.5,58,0.00,,,0.03,NetBSD+Arduino,2013-04-15 02:28:00,
2013-04-14 19:34:00,47.5,34.6,29.90,North,0,1.5,4.5,60,0.00,,,0.03,NetBSD+Arduino,2013-04-15 02:34:00,
2013-04-14 19:40:00,47.2,35.5,29.90,NW,315,0.0,3.0,63,0.00,,,0.03,NetBSD+Arduino,2013-04-15 02:40:00,
2013-04-14 19:45:00,47.0,35.1,29.90,NW,315,0.0,1.5,63,0.00,,,0.03,NetBSD+Arduino,2013-04-15 02:45:00,
2013-04-14 19:50:00,46.9,34.8,29.90,NW,315,0.0,1.5,62,0.00,,,0.03,NetBSD+Arduino,2013-04-15 02:50:00,
2013-04-14 19:55:00,46.9,35.3,29.90,West,270,0.0,0.0,63,0.00,,,0.03,NetBSD+Arduino,2013-04-15 02:55:00,
2013-04-14 20:01:00,46.7,35.8,29.91,NW,315,0.0,0.0,65,0.00,,,0.03,NetBSD+Arduino,2013-04-15 03:01:00,
2013-04-14 20:07:00,46.7,36.3,29.91,NE,45,0.0,0.0,67,0.00,,,0.03,NetBSD+Arduino,2013-04-15 03:07:00,
2013-04-14 20:12:00,46.6,36.3,29.91,North,0,1.5,1.5,67,0.00,,,0.03,NetBSD+Arduino,2013-04-15 03:12:00,
2013-04-14 20:17:00,46.6,35.6,29.92,NW,315,1.5,1.5,65,0.00,,,0.03,NetBSD+Arduino,2013-04-15 03:17:00,
2013-04-14 20:22:00,46.6,36.1,29.91,NE,45,1.5,3.0,66,0.00,,,0.03,NetBSD+Arduino,2013-04-15 03:22:00,
2013-04-14 20:27:00,46.5,38.5,29.92,SE,135,3.0,6.0,73,0.00,,,0.03,NetBSD+Arduino,2013-04-15 03:27:00,
2013-04-14 20:32:00,46.4,39.2,29.92,North,0,0.0,3.0,75,0.00,,,0.03,NetBSD+Arduino,2013-04-15 03:32:00,
2013-04-14 20:37:00,46.2,39.2,29.92,NE,45,1.5,3.0,76,0.00,,,0.03,NetBSD+Arduino,2013-04-15 03:37:00,
2013-04-14 20:43:00,46.0,39.6,29.92,NE,45,0.0,4.5,78,0.00,,,0.03,NetBSD+Arduino,2013-04-15 03:43:00,
2013-04-14 20:48:00,45.8,39.4,29.92,NW,315,0.0,3.0,78,0.00,,,0.03,NetBSD+Arduino,2013-04-15 03:48:00,
2013-04-14 20:53:00,45.4,39.1,29.92,NE,45,1.5,3.0,78,0.00,,,0.03,NetBSD+Arduino,2013-04-15 03:53:00,
2013-04-14 20:59:00,45.1,38.5,29.92,SW,225,0.0,4.5,77,0.00,,,0.03,NetBSD+Arduino,2013-04-15 03:59:00,
2013-04-14 21:00:00,44.9,38.6,29.92,SW,225,0.0,3.0,78,0.00,,,0.03,NetBSD+Arduino,2013-04-15 04:00:00,
2013-04-14 21:01:00,44.9,38.6,29.92,South,180,0.0,1.5,78,0.00,,,0.03,NetBSD+Arduino,2013-04-15 04:01:00,
2013-04-14 21:02:00,44.8,38.3,29.92,South,180,0.0,1.5,78,0.00,,,0.03,NetBSD+Arduino,2013-04-15 04:02:00,
2013-04-14 21:04:00,44.6,38.3,29.92,South,180,0.0,3.0,78,0.00,,,0.03,NetBSD+Arduino,2013-04-15 04:04:00,
2013-04-14 21:09:00,44.6,39.1,29.92,West,270,0.0,3.0,81,0.00,,,0.03,NetBSD+Arduino,2013-04-15 04:09:00,
2013-04-14 21:14:00,44.3,39.3,29.92,North,0,0.0,0.0,82,0.00,,,0.03,NetBSD+Arduino,2013-04-15 04:14:00,
2013-04-14 21:20:00,44.1,39.5,29.92,South,180,0.0,1.5,83,0.00,,,0.03,NetBSD+Arduino,2013-04-15 04:20:00,
2013-04-14 21:25:00,44.1,39.5,29.92,SW,225,1.5,3.0,83,0.00,,,0.03,NetBSD+Arduino,2013-04-15 04:25:00,
2013-04-14 21:30:00,43.8,39.7,29.92,SW,225,0.0,3.0,85,0.00,,,0.03,NetBSD+Arduino,2013-04-15 04:30:00,
2013-04-14 21:35:00,43.6,40.0,29.92,West,270,0.0,3.0,86,0.00,,,0.03,NetBSD+Arduino,2013-04-15 04:35:00,
2013-04-14 21:40:00,43.5,40.2,29.92,South,180,1.5,4.5,88,0.00,,,0.03,NetBSD+Arduino,2013-04-15 04:40:00,
2013-04-14 21:45:00,43.6,40.4,29.93,West,270,1.5,3.0,88,0.00,,,0.03,NetBSD+Arduino,2013-04-15 04:45:00,
2013-04-14 21:50:00,43.5,40.2,29.93,SW,225,1.5,3.0,88,0.00,,,0.03,NetBSD+Arduino,2013-04-15 04:50:00,
2013-04-14 21:55:00,43.2,39.9,29.93,SW,225,0.0,3.0,87,0.00,,,0.03,NetBSD+Arduino,2013-04-15 04:55:00,
2013-04-14 22:00:00,43.3,40.0,29.93,SW,225,1.5,4.5,87,0.00,,,0.03,NetBSD+Arduino,2013-04-15 05:00:00,
2013-04-14 22:05:00,43.0,39.7,29.93,South,180,0.0,3.0,87,0.00,,,0.03,NetBSD+Arduino,2013-04-15 05:05:00,
2013-04-14 22:10:00,43.0,39.8,29.93,South,180,0.0,3.0,88,0.00,,,0.03,NetBSD+Arduino,2013-04-15 05:10:00,
2013-04-14 22:15:00,43.0,40.0,29.93,West,270,0.0,4.5,88,0.00,,,0.03,NetBSD+Arduino,2013-04-15 05:15:00,
2013-04-14 22:20:00,43.0,39.9,29.93,SW,225,0.0,3.0,88,0.00,,,0.03,NetBSD+Arduino,2013-04-15 05:20:00,
2013-04-14 22:25:00,42.8,39.7,29.93,South,180,1.5,1.5,88,0.00,,,0.03,NetBSD+Arduino,2013-04-15 05:25:00,
2013-04-14 22:30:00,42.7,39.5,29.92,SW,225,0.0,1.5,88,0.00,,,0.03,NetBSD+Arduino,2013-04-15 05:30:00,
2013-04-14 22:35:00,42.7,39.6,29.92,South,180,0.0,3.0,88,0.00,,,0.03,NetBSD+Arduino,2013-04-15 05:35:00,
2013-04-14 22:40:00,42.7,39.6,29.93,SW,225,0.0,4.5,88,0.00,,,0.03,NetBSD+Arduino,2013-04-15 05:40:00,
2013-04-14 22:45:00,42.8,39.7,29.92,West,270,1.5,4.5,88,0.00,,,0.03,NetBSD+Arduino,2013-04-15 05:45:00,
2013-04-14 22:50:00,42.8,39.7,29.92,South,180,1.5,3.0,88,0.00,,,0.03,NetBSD+Arduino,2013-04-15 05:50:00,
2013-04-14 22:56:00,42.7,39.7,29.92,West,270,0.0,6.0,89,0.00,,,0.03,NetBSD+Arduino,2013-04-15 05:56:00,
2013-04-14 23:01:00,42.5,39.6,29.92,SW,225,0.0,4.5,89,0.00,,,0.03,NetBSD+Arduino,2013-04-15 06:01:00,
2013-04-14 23:06:00,42.5,39.4,29.93,NW,315,0.0,3.0,88,0.00,,,0.03,NetBSD+Arduino,2013-04-15 06:06:00,
2013-04-14 23:11:00,42.3,39.2,29.93,South,180,0.0,1.5,88,0.00,,,0.03,NetBSD+Arduino,2013-04-15 06:11:00,
2013-04-14 23:16:00,42.1,39.2,29.93,West,270,1.5,3.0,89,0.00,,,0.03,NetBSD+Arduino,2013-04-15 06:16:00,
2013-04-14 23:21:00,42.2,39.3,29.93,SE,135,0.0,3.0,89,0.00,,,0.03,NetBSD+Arduino,2013-04-15 06:21:00,
2013-04-14 23:27:00,42.0,39.2,29.92,SW,225,0.0,1.5,89,0.00,,,0.03,NetBSD+Arduino,2013-04-15 06:27:00,
2013-04-14 23:33:00,41.8,38.9,29.93,South,180,3.0,4.5,89,0.00,,,0.03,NetBSD+Arduino,2013-04-15 06:33:00,
2013-04-14 23:38:00,42.0,38.9,29.93,South,180,0.0,4.5,88,0.00,,,0.03,NetBSD+Arduino,2013-04-15 06:38:00,
2013-04-14 23:43:00,41.9,39.0,29.93,SW,225,0.0,3.0,89,0.00,,,0.03,NetBSD+Arduino,2013-04-15 06:43:00,
2013-04-14 23:49:00,41.8,39.1,29.93,West,270,0.0,4.5,90,0.00,,,0.03,NetBSD+Arduino,2013-04-15 06:49:00,
2013-04-14 23:54:00,41.7,39.3,29.93,South,180,1.5,4.5,91,0.00,,,0.03,NetBSD+Arduino,2013-04-15 06:54:00,
2013-04-14 23:59:00,41.6,39.2,29.92,East,90,0.0,1.5,91,0.00,,,0.03,NetBSD+Arduino,2013-04-15 06:59:00,